Preview of NWS' New Version of Forecast
This preview is not operational and should not be used for support decisions.

Regional Weather Roundup (RWR)

Issued by National Weather Service (NWS)

                            
000
ASUS43 KTOP 190508
RWRKS 

WEATHER ROUNDUP FOR KANSAS
NATIONAL WEATHER SERVICE GOODLAND KS
1200 AM CDT MON AUG 19 2019

NOTE:  "FAIR" INDICATES FEW OR NO CLOUDS BELOW 12,000 FEET WITH NO
SIGNIFICANT WEATHER AND/OR OBSTRUCTIONS TO VISIBILITY.

KSZ001>006-013>018-027>032-041>047-190600-
NORTHWEST KANSAS
  
CITY           SKY/WX    TMP DP  RH WIND       PRES   REMARKS
GOODLAND       CLEAR     68  66  93 SE6       29.99R                  
HAYS           CLEAR     73  70  90 E8        29.85R                  
HILL CITY      CLEAR     72  68  87 E5        29.95S                  
RUSSELL        CLEAR     74  70  87 E10       29.93R                  
$$

KSZ061>065-074>080-084>089-190600-
SOUTHWEST KANSAS
  
CITY           SKY/WX    TMP DP  RH WIND       PRES   REMARKS
DODGE CITY     CLEAR     75  68  78 SE10      29.95S                  
ELKHART        CLEAR     76  68  78 SE12      30.00S                  
GARDEN CITY    CLEAR     73  66  78 SE9       29.95S                  
GREAT BEND     CLEAR     76  71  85 SE8       29.93S                  
LIBERAL        CLEAR     77  68  73 E13       29.97R                  
PRATT          CLEAR     78  71  79 E5        29.94S                  
$$

KSZ066>073-081>083-090>101-190600-
SOUTHEAST KANSAS
  
CITY           SKY/WX    TMP DP  RH WIND       PRES   REMARKS
CHANUTE        CLOUDY    80  75  84 SE6       29.93S                  
COFFEYVILLE    MOCLDY    78  73  84 SE6       29.91S                  
HUTCHINSON     CLEAR     77  71  82 E7        29.92S                  
MEDICINE LODGE   N/A     80  73  79 E8        29.91S                  
NEWTON         CLEAR     74  72  93 SE7       29.95R                  
PARSONS        MOCLDY    79  75  87 SE3       29.94R                  
WICHITA INTL   PTCLDY    80  74  81 SE9       29.92R                  
WICHITA JABRA  PTCLDY    78  74  87 SE6       29.93R                  
WICHITA MCCONL PTCLDY    79  72  81 E9        29.93R                  
WINFIELD       MOCLDY    80  75  84 E6        29.93R                  
$$

KSZ007>012-019>026-033>040-048>060-102>105-190600-
NORTHEAST KANSAS
  
CITY           SKY/WX    TMP DP  RH WIND       PRES   REMARKS
CONCORDIA      CLEAR     72  70  93 E5        29.94R                  
EMPORIA        CLEAR     73  72  96 S7        29.93S                  
LAWRENCE       CLOUDY    76  73  91 E3        29.92S                  
MANHATTAN      CLEAR     75  72  90 NE5       29.92S                  
MARYSVILLE     CLEAR     68  68 100 CALM      29.96R                  
OLATHE IND     CLEAR     75  72  90 S6        29.94S                  
OLATHE EXE     CLEAR     75  73  93 S3        29.94S                  
SALINA         CLEAR     76  70  82 SE3       29.92R                  
TOPEKA BILLARD MOCLDY    76  71  85 N8        29.92R                  
TOPEKA FORBES  MOCLDY    77  72  84 SE3       29.93R                  
$$